EW0811 Weather Reports


time (UTC)temp
C
wind
direction
speed
KPH
gust
KPH
rain 1hr
cm
rain 24hr
cm
rain mn
cm
humidity
%
barometer
mb
20260503051117 1 0.0 1.6 0.00 0.00 0.00 86 1014.2
20260503050117 1 225 3.2 4.8 0.00 0.00 0.00 86 1014.3
20260503045137 2 225 1.6 3.2 0.00 0.00 0.00 84 1014.3
20260503044116 2 0.0 1.6 0.00 0.00 0.00 83 1014.3
20260503043116 2 225 1.6 1.6 0.00 0.00 0.00 82 1014.4
20260503042116 3 225 1.6 4.8 0.00 0.00 0.00 81 1014.5
20260503041116 3 225 3.2 4.8 0.00 0.00 0.00 80 1014.5
20260503040118 3 225 1.6 3.2 0.00 0.00 0.00 80 1014.5
20260503035116 3 0.0 1.6 0.00 0.00 0.00 81 1014.5
20260503034116 3 225 3.2 4.8 0.00 0.00 0.00 81 1014.6
20260503033117 3 0.0 0.0 0.00 0.00 0.00 81 1014.6
20260503032116 3 225 3.2 4.8 0.00 0.00 0.00 81 1014.7
20260503031116 3 248 1.6 3.2 0.00 0.00 0.00 81 1014.7
20260503030116 3 248 3.2 4.8 0.00 0.00 0.00 81 1014.7
20260503025116 4 0.0 1.6 0.00 0.00 0.00 80 1014.8
20260503024116 4 0.0 0.0 0.00 0.00 0.00 78 1014.8
20260503023116 5 0.0 1.6 0.00 0.00 0.00 75 1014.9
20260503022116 5 248 1.6 4.8 0.00 0.00 0.00 74 1015.0
20260503021138 5 248 1.6 3.2 0.00 0.00 0.00 72 1015.1
20260503020116 5 248 1.6 1.6 0.00 0.00 0.00 72 1015.0
20260503015116 5 248 1.6 3.2 0.00 0.00 0.00 72 1015.0
20260503014116 5 248 1.6 3.2 0.00 0.00 0.00 70 1015.0
20260503013116 5 248 1.6 4.8 0.00 0.00 0.00 69 1015.0
20260503012116 5 248 3.2 4.8 0.00 0.00 0.00 69 1015.0
20260503011116 5 293 3.2 6.4 0.00 0.00 0.00 66 1014.9
20260503010116 6 293 3.2 3.2 0.00 0.00 0.00 68 1014.9
20260503005136 6 248 3.2 4.8 0.00 0.00 0.00 67 1014.8
20260503004116 6 248 6.4 12.9 0.00 0.00 0.00 67 1014.8
20260503003116 6 293 3.2 4.8 0.00 0.00 0.00 66 1014.6
20260503002118 6 270 1.6 4.8 0.00 0.00 0.00 66 1014.6
20260503001116 6 270 3.2 4.8 0.00 0.00 0.00 66 1014.5
20260503000116 6 225 1.6 4.8 0.00 0.00 0.00 66 1014.5
20260502235116 6 248 4.8 9.7 0.00 0.00 0.00 65 1014.4
20260502234116 6 315 4.8 8.0 0.00 0.00 0.00 66 1014.4
20260502233116 6 270 3.2 4.8 0.00 0.00 0.00 67 1014.3
20260502232116 6 293 4.8 11.3 0.00 0.00 0.00 68 1014.4
20260502231118 6 293 3.2 4.8 0.00 0.00 0.00 71 1014.3
20260502230116 6 270 4.8 9.7 0.00 0.00 0.00 70 1014.2
20260502225116 6 248 3.2 4.8 0.00 0.00 0.00 70 1014.1
20260502224116 7 270 4.8 9.7 0.00 0.00 0.00 69 1014.1
20260502223136 7 203 3.2 4.8 0.00 0.00 0.00 68 1014.1
20260502222116 7 270 1.6 3.2 0.00 0.00 0.00 61 1014.1
20260502221116 8 293 3.2 4.8 0.00 0.00 0.00 61 1014.1
20260502220136 8 248 1.6 4.8 0.00 0.00 0.00 63 1014.2
20260502215116 8 293 1.6 4.8 0.00 0.00 0.00 65 1014.2
20260502214116 8 338 3.2 8.0 0.00 0.00 0.00 66 1014.1
20260502213159 8 338 1.6 4.8 0.00 0.00 0.00 67 1014.1
20260502212116 8 315 4.8 11.3 0.00 0.00 0.00 68 1014.1
20260502211116 8 338 3.2 4.8 0.00 0.00 0.00 61 1014.0
20260502210116 9 315 6.4 9.7 0.00 0.00 0.00 66 1014.0
20260502205136 9 293 6.4 11.3 0.00 0.00 0.00 68 1014.1
20260502204116 8 293 3.2 9.7 0.00 0.00 0.00 67 1014.0
20260502203258 8 293 6.4 12.9 0.00 0.00 0.00 64 1014.0
20260502202137 7 248 3.2 4.8 0.00 0.00 0.00 66 1014.0
20260502201116 7 315 4.8 9.7 0.00 0.00 0.00 67 1014.1
20260502200136 8 0 4.8 8.0 0.00 0.00 0.00 65 1014.2
20260502200016 8 338 3.2 6.4 0.00 0.00 0.00 67 1014.2
20260502195016 8 315 4.8 8.0 0.00 0.00 0.00 66 1014.3
20260502194016 7 315 1.6 4.8 0.00 0.00 0.00 67 1014.4
20260502193016 7 0 1.6 3.2 0.00 0.00 0.00 67 1014.4
20260502192016 7 338 6.4 12.9 0.00 0.00 0.00 64 1014.5
20260502191016 8 248 8.0 12.9 0.00 0.00 0.00 64 1014.6
20260502190036 8 248 8.0 12.9 0.00 0.03 0.00 64 1014.6
20260502185016 10 315 4.8 9.7 0.00 0.03 0.00 66 1014.7
20260502184015 8 270 3.2 3.2 0.00 0.03 0.00 67 1014.6
20260502182017 8 293 8.0 17.7 0.00 0.03 0.00 67 1014.8
20260502181016 9 270 4.8 11.3 0.00 0.03 0.00 69 1014.8
20260502164015 8 248 9.7 16.1 0.00 0.15 0.00 65 1014.8
20260502163015 9 293 4.8 8.0 0.00 0.15 0.00 68 1014.9
20260502162016 8 338 4.8 11.3 0.00 0.15 0.00 74 1014.9
20260502161015 8 315 8.0 16.1 0.00 0.15 0.00 74 1015.0
20260502152015 8 293 4.8 9.7 0.00 0.15 0.00 67 1014.8
20260502151036 7 293 4.8 9.7 0.00 0.15 0.00 68 1014.8
20260502123015 5 270 6.4 11.3 0.00 0.15 0.00 79 1015.2
20260502122015 5 270 4.8 9.7 0.00 0.15 0.00 79 1015.2
20260502121035 4 248 8.0 9.7 0.00 0.15 0.00 79 1015.1
20260502115015 3 270 4.8 9.7 0.00 0.15 0.00 85 1015.3
20260502114015 3 270 3.2 6.4 0.00 0.15 0.00 84 1015.3
20260502113035 2 248 4.8 9.7 0.00 0.15 0.00 87 1015.3
20260502112015 2 293 3.2 4.8 0.00 0.15 0.00 89 1015.2
20260502111035 1 248 3.2 4.8 0.00 0.15 0.00 90 1015.1
20260502110015 1 225 3.2 4.8 0.00 0.15 0.00 91 1015.1
20260502105035 0 248 3.2 4.8 0.00 0.15 0.00 91 1015.0
20260502104015 0 248 3.2 4.8 0.00 0.15 0.00 92 1014.9
20260502103015 0 248 3.2 4.8 0.00 0.15 0.00 91 1014.9
20260502102015 0 248 3.2 3.2 0.00 0.15 0.00 91 1014.7
20260502101015 0 270 3.2 4.8 0.00 0.15 0.00 91 1014.7
20260502091017 0 248 1.6 4.8 0.00 0.15 0.00 91 1014.3
20260502071019 2 293 4.8 9.7 0.00 0.15 0.00 87 1014.0
20260502070017 2 293 3.2 4.8 0.00 0.15 0.00 88 1014.0
20260502065016 2 248 3.2 6.4 0.00 0.15 0.00 87 1013.9
20260502064018 2 270 1.6 3.2 0.00 0.15 0.00 87 1014.0
20260502063017 3 248 1.6 4.8 0.00 0.15 0.00 85 1014.0
20260502062037 3 293 1.6 4.8 0.00 0.15 0.00 85 1013.9
20260502061036 3 270 3.2 6.4 0.00 0.15 0.00 86 1014.1
20260502060040 3 293 1.6 3.2 0.00 0.15 0.00 87 1014.1
20260502055016 3 293 3.2 8.0 0.00 0.15 0.00 87 1014.1
20260502054016 3 293 3.2 6.4 0.00 0.15 0.00 86 1014.1
20260502053017 3 338 3.2 6.4 0.00 0.15 0.00 85 1014.1
20260502052057 3 315 3.2 6.4 0.00 0.15 0.00 83 1013.9